NOAA 16 DEB, 41520

Orbit data source: Space-Track

NOAA 16 DEB, 41520 is space debris in SSO originally from a launch on Thu, 21 Sep 2000 UTC launched from the Air Force Western Test Range (AFWTR). Debris objects in space refer to the collection of defunct objects orbiting the Earth. Examples of debris include non-operational satellites, rocket bodies, and fragments generated from explosions, collisions, or faulty payload assembly.

Loading next visibility...
Identifier
41520, 2000-055MU
Orbit
SSO
Country
Flag of USUS
Related business
Manufacturer
Unknown
Mission
Spacecraft
Bus & Motor
Unknown
Mass
Unknown
Launch date (UTC)
2000-09-21 (25 years ago)
Launch vehicle
Unknown
Launch site
Air Force Western Test Range (AFWTR)
Object type
Payload
Rocket body
Debris
Shape & HBR
Unknown shape, 0.1 m
Radar Cross Section
Small (<0.1 m²)

Expand to show TLE details & history
Last TLE update: 3 days ago

TLE from 3 days ago
0 NOAA 16 DEB
1 41520U 00055MU  25343.82495657  .00065840  00000-0  11906-1 0  9996
2 41520  98.8727 114.8006 0027378 199.9093 160.1042 14.65777004498895
Epoch: 2025-12-09T19:47Z
TLE epoch observation values (Epoch: 2025-12-09T19:47:56.247Z)
Latitude
-0.00004°
Longitude
99.01216°
Altitude
695.72 km
Speed
7.499 km/s
True Right ascension
07h 39m 12s
True Declination
0° 00' 00"
Sunlit
Object was in full shadow at epoch
Visualization orbit readout
Latitude
Unknown
Longitude
Unknown
Altitude
Unknown
Speed
Unknown
Apparent Right ascension
Unknown
Apparent Declination
Unknown
Sunlit
N/A
Visualization observer readout
Local Sidereal Time
01:30:47
Azimuth
Unknown
Elevation
Unknown
Doppler factor
Unknown
Orbital elements
Apogee altitude
690.989 km
Perigee altitude
652.387 km
Semi-major axis
7,049.825 km
Eccentricity
0.00274
Inclination
98.8727°
RAAN
114.8006°
Arg. of periapsis
199.9093°
True anomaly
160.21062°
Mean anomaly
160.1042°
Eccentric anomaly
160.15745°
Mean motion
3.6667 °/min
Orbital period
98.18 mins
BSTAR
0.011906
Loading maneuver chart data...
Computing Atmospheric mass density...
Loading historical data...
Loading historical data...
Loading historical data...
Loading historical data...
Loading historical data...
Loading historical data...
Loading historical data...

Documentation

Showing up to 5 results
|